SCP
0 0 0 0 0 0 0 0 0 0 0 0 0 0 0 0 0 0 0 0 0 0 0 0 0 0 0 1 1 1 1 1 1 1 0 0 0 0 0 0 0 0 0
0 0 0 0 0 0 0 0 0 0 0 0 0 0 0 0 0 0 0 0 0 0 0 0 0 0 0 0 1 1 1 1 1 1 1 0 0 0 0 0 0 0 0
0 0 0 0 0 0 0 0 0 0 0 0 0 0 0 0 0 0 0 0 0 0 0 0 0 0 0 0 0 0 1 1 1 1 1 0 0 0 0 0 0 0 0
0 0 0 0 0 0 0 0 0 0 0 0 0 0 0 0 0 0 0 0 0 0 0 0 0 0 0 0 0 0 0 1 1 1 1 0 0 0 0 0 0 0 0
0 0 0 0 0 0 0 0 0 0 0 0 0 0 0 0 0 0 0 0 0 0 0 0 0 0 0 0 0 0 0 0 0 0 0 0 0 0 1 1 0 0 0
0 0 0 0 0 0 0 0 0 0 0 0 0 0 0 0 0 0 0 0 0 0 0 0 0 0 0 0 0 0 0 0 0 0 0 0 0 1 1 1 1 1 0
0 0 0 0 0 0 0 0 0 0 0 0 0 0 0 0 0 0 0 0 0 0 0 0 0 0 0 0 0 0 0 0 0 0 0 0 0 1 1 1 1 1 1
0 0 0 0 0 0 0 0 0 0 0 0 0 0 0 0 0 0 0 0 0 0 0 0 0 0 0 0 0 0 0 0 0 0 0 0 0 1 1 1 1 1 1
0 0 0 0 0 0 0 0 0 0 0 0 0 0 0 0 0 0 0 0 0 0 0 0 0 0 0 0 0 0 0 0 0 0 0 0 0 0 1 1 1 1 1
0 0 0 0 0 0 0 0 0 0 0 0 0 0 0 0 0 0 0 0 0 0 0 0 0 0 0 0 0 0 0 0 0 0 0 0 0 0 1 1 1 1 1
0 0 0 0 0 0 0 0 0 0 0 0 0 0 0 0 0 0 0 0 0 0 0 0 0 0 0 0 0 0 0 0 0 0 0 0 0 0 0 1 1 1 1
0 0 0 0 0 0 0 0 0 0 0 0 0 0 0 0 0 0 0 0 0 0 0 0 0 0 0 0 0 0 0 0 0 0 0 0 0 0 0 0 1 1 1
0 0 0 0 0 0 0 0 0 0 0 0 0 0 0 0 0 0 0 0 0 0 0 0 0 0 0 0 0 0 0 0 0 0 0 0 0 0 0 0 0 1 1
0 0 0 0 0 0 0 0 0 0 0 0 0 0 0 0 0 0 0 0 0 0 -0 -0 0 -0 -0 -0 0 0 0 0 0 0 0 0 0 0 0 0 0 0 1
0 0 0 0 0 0 0 0 0 0 0 0 0 0 0 0 0 0 0 0 0 0 0 0 -0 -0 -0 -0 0 0 0 0 0 0 0 0 0 0 0 0 0 0 1
0 0 0 0 0 0 0 0 0 0 0 0 0 0 0 0 0 0 0 0 0 0 0 0 -0 -0 -0 0 0 0 0 0 0 0 0 0 0 0 0 0 0 0 0
0 0 0 0 0 0 0 0 0 0 0 0 0 0 0 0 0 0 0 0 0 0 0 0 0 0 0 -0 -0 -0 0 0 0 0 0 0 0 0 0 0 0 0 0
0 0 0 0 0 0 0 0 0 0 0 0 0 0 0 0 0 0 0 0 0 0 0 0 0 0 -0 -0 -0 -0 0 0 0 0 0 0 0 0 0 0 0 0 0
0 0 0 0 0 0 0 0 0 0 0 0 0 0 0 0 0 0 0 0 0 0 0 0 0 0 -0 -0 -0 -0 0 0 0 0 0 0 0 0 0 0 0 0 0
0 0 0 0 0 0 0 0 0 0 0 0 0 0 0 0 0 0 0 0 0 0 0 0 0 0 -0 -0 -0 -0 0 0 0 0 0 0 0 0 0 0 0 0 0
0 0 0 0 0 0 0 0 0 0 0 0 0 0 0 0 0 0 0 0 0 0 0 0 0 0 0 -0 -0 -0 -0 -0 0 0 0 0 0 0 0 0 0 0 0
0 0 0 0 0 0 0 0 0 0 0 0 0 0 0 0 0 0 0 0 0 0 0 0 0 0 0 0 -0 -0 -0 -0 -0 -0 0 0 0 0 0 0 0 0 0
0 0 0 0 0 0 0 0 0 0 0 0 0 0 0 0 0 0 0 0 0 0 0 0 0 0 0 0 0 -0 -0 -0 -0 -0 -0 -0 0 0 0 0 0 0 0
0 0 0 0 0 0 0 0 0 0 0 0 0 0 0 0 0 0 0 0 0 0 0 0 0 0 0 0 0 0 0 -0 -0 -0 -0 0 0 0 0 0 0 0 0
0 0 0 0 0 0 0 0 0 0 0 0 0 0 0 0 0 0 0 0 0 0 0 0 0 0 0 0 0 0 0 0 -0 -0 0 0 0 0 -0 0 0 0 0
0 0 0 0 0 0 0 0 0 0 0 0 0 0 0 0 0 0 0 0 0 0 0 0 0 0 0 0 0 0 0 0 0 0 0 0 0 0 -0 0 0 0 0
Wind_Speed
11 15 25 26 26 27 27 27 27 27 27 27 27 27 27 27 27 27 28 27 27 27 26 26 25 25 24 23 20 17 16 14 13 11 10 9 9 7 6 5 5 4 7
11 15 23 26 26 26 27 27 27 27 27 27 27 26 27 27 27 27 27 27 27 27 27 26 26 25 25 24 23 21 18 16 14 13 11 9 9 9 9 7 7 5 9
13 14 17 25 25 25 26 26 26 26 26 26 26 26 26 27 27 27 27 27 27 26 26 26 26 26 26 25 24 23 21 19 16 14 12 5 5 10 11 9 9 9 10
11 12 16 24 25 25 26 26 26 26 26 26 26 25 26 27 27 27 28 27 27 26 26 25 26 26 26 26 25 24 23 22 19 16 7 4 5 10 12 11 11 11 11
9 12 17 25 25 25 25 25 25 26 26 26 25 25 26 27 27 27 27 28 27 27 26 26 26 26 26 26 26 25 24 23 23 16 7 5 5 11 14 14 12 13 12
8 11 16 25 24 24 24 25 25 25 25 24 24 25 25 26 26 26 27 27 27 27 26 26 26 26 26 26 26 25 25 25 20 11 9 7 5 12 16 16 15 14 15
8 10 15 24 24 24 24 25 25 25 25 25 25 25 25 26 26 26 26 26 26 26 26 27 27 27 26 25 26 25 25 26 15 11 10 8 8 15 17 18 18 17 18
8 9 13 23 24 24 23 25 25 25 24 24 24 25 26 26 26 26 26 26 26 26 26 27 27 27 26 26 25 26 25 24 16 14 12 10 13 16 18 18 19 18 19
7 10 11 12 15 20 22 23 25 24 24 23 24 25 25 26 26 26 27 26 26 26 26 26 26 27 27 26 25 26 26 24 13 11 13 10 16 18 19 18 19 20 19
7 8 9 9 9 10 11 20 24 23 23 22 22 23 24 24 24 25 24 25 25 26 26 26 26 26 26 25 25 26 25 19 12 13 9 11 21 22 20 19 19 20 20
9 6 7 8 8 10 9 15 16 18 19 18 16 21 18 10 10 13 21 24 25 25 25 26 26 25 25 23 25 25 19 9 14 10 9 17 24 25 24 21 19 19 20
9 7 6 7 8 8 9 7 6 8 9 9 8 10 8 8 9 13 19 23 24 24 24 25 25 22 18 11 16 19 8 13 10 10 11 23 25 25 25 24 21 19 20
6 6 5 6 6 7 6 6 4 5 5 7 8 9 8 6 6 7 6 9 11 15 11 15 14 10 10 11 10 10 11 10 8 9 12 24 25 26 26 25 23 20 19
5 6 5 6 7 7 6 5 4 5 5 5 7 8 7 5 6 7 6 6 6 6 9 9 8 11 12 12 12 12 11 9 9 9 11 25 27 27 26 25 24 22 20
5 6 6 6 8 7 6 6 6 5 5 6 6 6 7 6 6 7 6 6 6 6 7 8 9 11 12 12 11 13 13 12 12 11 10 23 27 26 25 24 24 23 22
4 7 8 6 7 7 6 6 5 5 5 5 5 7 8 7 7 7 7 6 6 7 8 8 10 10 10 10 12 13 13 13 10 12 12 15 23 24 24 23 23 22 22
5 6 7 6 7 7 6 6 6 5 5 5 5 6 8 8 7 7 7 6 7 8 9 8 9 7 9 10 12 13 12 11 12 14 13 11 11 18 22 22 22 21 21
5 5 6 7 7 6 6 6 5 5 5 5 5 5 7 8 8 7 7 6 7 7 7 9 7 9 9 10 11 11 11 11 14 13 11 11 9 9 14 21 21 21 20
4 5 6 6 6 7 7 6 6 5 5 5 5 5 6 8 8 7 6 5 8 7 7 9 8 9 10 11 12 11 10 11 12 12 11 11 9 9 8 16 21 21 20
3 4 5 6 6 6 5 5 4 5 5 4 5 5 8 7 9 8 6 6 8 6 6 7 9 9 8 10 13 12 11 12 11 7 8 8 8 9 10 12 11 14 19
4 5 5 6 6 6 5 6 6 6 6 5 5 7 8 8 9 8 7 7 7 6 8 9 8 10 8 8 10 11 10 10 9 4 5 6 6 8 10 12 10 10 10
4 5 6 6 7 6 5 5 5 6 4 5 6 7 8 9 9 10 8 8 8 7 7 8 9 7 8 6 7 10 8 6 3 8 7 6 5 7 10 13 12 12 11
4 5 6 7 7 7 7 5 7 4 4 4 6 5 7 10 10 9 9 9 9 7 7 7 8 8 9 7 4 6 7 7 11 5 5 5 6 7 8 10 12 13 13
4 5 5 6 7 7 6 6 8 8 8 8 6 7 9 9 10 10 9 10 9 8 8 8 7 7 9 9 7 6 7 8 8 8 4 4 7 8 8 10 12 12 11
4 4 5 6 6 7 7 7 7 6 6 7 8 8 8 7 9 11 11 9 9 9 9 9 9 8 7 8 8 8 9 9 10 10 13 8 7 6 6 9 10 9 10
4 4 5 7 7 7 8 7 7 8 9 11 11 9 8 7 7 8 12 9 10 10 10 10 9 8 8 9 8 7 8 8 7 8 11 13 11 7 7 7 8 8 8
Wind_Direction
339 343 357 10 13 16 16 15 16 16 16 15 15 16 16 15 14 14 11 9 8 6 4 2 1 360 358 353 344 335 327 321 315 310 304 301 294 279 252 223 221 213 192
344 349 358 12 14 16 16 15 16 15 15 14 14 14 14 13 12 13 9 7 5 4 1 1 359 358 356 356 352 344 331 319 314 308 302 296 292 287 271 236 223 229 211
354 351 354 12 13 15 16 15 15 14 14 14 14 13 13 11 9 10 8 5 3 2 359 358 357 356 354 352 350 348 342 329 316 309 304 292 282 280 274 255 231 233 222
355 356 357 14 14 15 16 15 14 14 14 13 13 13 13 10 7 7 5 3 1 359 357 357 355 353 352 350 347 345 345 342 331 317 307 282 271 277 272 265 245 235 224
1 4 359 16 14 15 16 16 15 14 13 13 12 12 12 9 6 6 3 0 359 357 355 355 353 351 349 347 345 344 343 343 340 330 313 291 271 275 273 267 259 243 227
11 7 3 16 15 14 15 16 14 14 13 13 12 12 11 7 4 5 2 358 357 355 354 353 350 348 346 344 343 343 342 341 338 329 316 301 282 280 274 266 261 253 234
20 16 10 16 15 13 13 15 12 13 12 12 11 11 9 6 3 2 0 357 356 354 353 352 348 346 344 343 341 341 340 340 336 331 324 310 296 292 281 270 261 258 237
25 22 18 14 14 12 11 14 11 12 11 12 11 10 8 5 1 1 359 355 354 353 353 350 347 344 343 343 341 340 339 339 340 336 325 311 303 298 287 276 265 261 241
32 28 19 10 10 9 9 12 10 12 12 12 10 9 8 5 0 359 357 352 352 351 351 348 347 345 344 343 341 339 338 338 346 330 321 317 314 308 295 285 274 263 250
38 32 16 4 6 0 357 10 10 11 11 12 9 8 7 4 358 356 352 349 351 350 350 346 346 346 345 342 340 338 339 342 336 322 319 314 322 319 307 293 282 269 256
25 24 17 5 8 3 2 11 8 9 7 10 5 5 5 356 347 354 345 349 350 348 349 344 344 346 346 341 338 337 341 335 325 319 315 315 321 320 317 308 291 277 261
4 5 20 7 9 6 7 2 360 1 356 355 355 358 354 349 345 354 345 348 349 347 347 343 343 345 343 335 332 337 332 329 322 319 313 316 316 317 316 312 304 288 269
345 349 7 10 7 8 4 356 4 353 350 349 351 354 348 341 340 342 334 342 343 345 341 339 338 336 332 330 324 323 324 327 319 314 309 311 314 315 312 309 305 297 278
349 347 357 12 9 8 2 348 2 350 346 345 342 348 347 340 338 336 331 329 336 338 333 333 329 327 328 323 320 318 321 318 313 309 305 310 312 310 308 305 304 299 288
355 352 356 16 12 1 358 350 356 341 340 334 335 343 346 339 335 332 327 325 327 330 330 329 327 326 328 322 319 320 317 313 306 307 308 307 307 307 305 304 302 299 296
2 359 350 10 12 355 348 335 330 328 329 329 335 339 343 339 334 333 327 325 331 332 328 326 318 324 323 319 317 317 312 306 304 306 303 304 306 307 307 305 303 301 297
10 353 346 1 7 345 335 329 335 321 325 327 332 332 334 336 332 332 326 329 333 330 327 325 315 325 321 320 317 313 307 305 305 304 302 298 301 307 309 313 310 304 297
1 339 338 350 347 335 331 324 320 318 320 318 321 323 327 332 332 331 324 327 328 328 329 324 328 329 322 321 317 311 305 304 302 299 297 298 300 304 316 322 322 316 307
340 319 325 331 337 333 329 325 319 317 315 314 316 316 324 328 329 326 315 322 325 324 325 325 332 324 322 322 315 308 305 300 293 294 297 299 305 312 326 328 329 327 320
323 318 320 328 333 330 327 324 317 315 311 314 315 316 325 324 325 323 310 321 320 319 320 318 319 319 318 318 315 308 300 289 282 282 291 306 311 331 337 329 327 327 328
315 332 334 341 337 342 343 341 331 330 322 318 318 323 320 320 322 317 315 317 314 313 315 314 317 316 319 323 317 314 296 274 272 292 301 300 315 341 335 332 326 327 323
320 336 341 342 334 338 335 322 311 313 308 312 316 311 313 320 319 322 318 315 309 307 309 311 314 311 319 331 317 317 314 307 345 320 294 296 327 336 334 331 321 324 319
336 337 338 331 330 331 330 325 326 308 304 319 321 308 318 319 317 312 310 310 307 302 302 303 300 310 314 311 298 300 306 315 324 277 283 316 333 322 324 319 320 317 310
339 331 327 328 329 328 330 332 336 342 333 327 320 316 319 316 315 315 313 309 305 304 299 297 312 302 301 305 303 273 281 293 297 308 306 314 308 315 311 317 315 308 306
345 329 329 333 330 327 329 327 324 317 305 313 317 316 315 316 316 318 318 310 306 305 297 292 295 288 290 289 291 290 285 279 270 285 298 308 308 295 295 303 303 302 303
335 335 345 343 330 326 326 322 317 312 314 323 328 325 326 322 316 312 316 308 304 301 296 293 287 282 284 280 280 278 281 283 286 287 289 300 303 301 296 292 295 300 302